Location: Goettingen
(51.5300°N, 9.9433°E)
Time: 14:11:36
(UTC+02:00)

ISS - Pass Details

Date: 23 May 2018
Orbit: 402 x 407 km, 51.6° (Epoch: 25 May)

Event Time Altitude Azimuth Distance (km) Brightness Sun altitude
Rises 03:48:22 0° 282° (WNW) 2,320 -0.2 -10.7°
Reaches altitude 10° 03:50:48 10° 265° (W) 1,457 -1.4 -10.5°
Maximum altitude 03:53:15 20° 216° (SW) 1,000 -2.5 -10.2°
Drops below altitude 10° 03:55:43 10° 166° (SSE) 1,451 -1.4 -10.0°
Sets 03:58:08 0° 149° (SSE) 2,306 -0.2 -9.8°
